Vorticity
14 12 14 5 5 8 23 3 -13 19 5 10 5 5 -7 19 -2 -4 23 33 2 11 8 5 9 5 4 4 4 4 4 5 7 7 11 8 6 4 5 2 12 6 3 7 8 6 5 5 3
10 11 14 9 -18 1 15 25 -0 -4 9 32 -2 13 2 -2 14 -12 -23 27 -4 12 8 8 7 5 5 5 5 5 5 6 8 8 8 6 7 8 2 9 7 2 6 8 6 5 4 4 6
8 10 16 0 21 -4 -3 16 20 -3 -3 18 27 3 3 -1 14 6 8 -13 15 13 7 7 7 5 5 5 5 5 6 8 12 11 8 12 8 2 8 8 3 6 7 5 4 5 7 8 7
8 10 16 -4 -4 3 10 1 19 7 -15 6 20 11 8 -7 -7 6 3 2 5 13 6 7 5 5 5 5 5 6 7 9 9 6 1 8 7 10 9 3 7 6 5 5 7 8 8 8 7
13 15 9 19 17 -12 24 -17 23 18 13 -21 7 27 2 25 -25 14 2 5 1 13 4 5 6 6 6 5 5 6 7 8 7 6 8 8 10 7 4 7 6 5 6 8 8 9 7 5 3
12 13 -1 23 8 16 -17 43 -10 -16 29 5 -21 6 33 -3 -3 -28 10 11 8 10 3 5 6 6 5 5 6 7 7 8 8 8 8 9 6 5 7 6 5 7 8 9 8 5 4 4 5
11 4 4 1 20 12 8 -18 8 4 -5 24 2 9 5 16 34 6 -4 9 16 7 3 5 6 6 5 5 6 7 8 8 8 8 7 6 6 7 5 5 7 9 9 6 4 5 5 6 5
10 16 2 15 11 11 10 15 11 1 11 10 7 5 14 12 -3 17 5 18 11 6 3 5 5 5 5 5 6 7 8 8 7 7 7 7 6 5 5 7 8 7 5 6 5 5 4 4 5
15 12 8 15 -20 21 14 53 6 3 31 -19 19 3 14 -9 17 5 -13 16 12 12 4 4 5 5 5 6 6 7 7 7 7 7 7 6 6 7 8 9 7 6 5 4 3 3 4 4 4
13 2 9 17 15 -19 2 6 -0 44 -19 0 6 32 7 -1 37 -14 -5 5 8 5 5 4 5 5 5 5 6 7 7 7 7 7 6 7 6 8 9 6 5 4 3 2 2 2 3 3 3
6 3 13 7 15 7 4 12 27 11 25 25 -24 11 6 6 19 17 3 -12 7 4 9 4 5 5 6 6 6 6 7 7 6 6 7 6 6 9 5 5 5 4 3 3 3 3 4 4 3
9 8 14 11 12 12 10 -10 5 17 35 18 -16 23 0 3 14 26 16 15 12 1 6 4 5 5 6 6 6 7 7 6 7 6 6 8 8 7 5 5 3 2 2 2 3 3 4 4 4
7 11 13 12 15 19 6 13 3 13 36 34 -4 -2 11 -3 17 -10 -13 40 6 8 7 7 5 5 7 7 7 7 6 6 6 6 8 9 6 5 3 2 1 -0 0 1 1 2 3 3 3
6 4 9 17 18 12 9 -17 2 17 16 49 -18 -12 19 -2 9 9 8 3 -60 15 11 4 10 6 7 7 7 7 7 6 6 7 8 6 4 2 1 0 -0 0 1 1 2 2 2 3 4
16 6 31 12 15 22 15 32 13 -18 30 42 -34 -2 10 3 2 13 14 5 15 20 -8 -11 11 8 9 8 7 7 6 6 7 8 6 4 2 1 -0 -1 -0 0 0 1 1 1 2 2 2
8 15 26 31 30 3 27 13 7 2 3 34 11 45 -6 4 7 8 16 15 14 -4 12 41 5 2 10 10 8 7 6 6 7 6 4 2 -0 0 -0 -0 -1 0 -0 0 1 1 2 2 2
24 1 8 25 37 10 14 27 6 20 11 29 -14 31 -9 12 -3 15 8 2 4 0 -3 -9 11 8 6 8 8 6 6 6 6 4 2 1 0 -0 -0 -0 -0 -0 -0 1 1 2 2 2 3
2 -7 18 -5 18 24 27 -5 -36 29 11 56 46 37 29 7 -4 9 8 -2 11 16 23 34 23 -1 7 2 10 7 6 6 5 3 2 0 -1 -1 -0 -0 -0 -0 0 1 1 2 3 3 3
14 -10 4 26 58 31 3 11 -35 -2 30 38 -50 22 23 5 8 4 17 3 16 0 11 -12 -0 -4 -36 4 14 10 8 5 4 3 2 1 1 0 0 0 0 1 2 2 1 4 5 5 7
10 12 -5 44 20 29 10 4 3 14 15 33 -9 -52 63 11 11 1 13 4 10 -0 5 14 18 -17 9 4 8 10 8 5 3 4 3 2 1 1 1 2 2 3 4 4 8 6 6 8 11
20 15 1 17 19 -3 22 21 13 12 14 51 24 -21 54 16 11 6 5 16 -20 13 3 4 -3 2 -10 -10 11 9 9 7 6 6 4 3 4 4 6 7 2 7 8 10 7 11 13 16 11
5 33 24 17 -3 28 -21 21 5 9 17 16 11 -16 21 33 13 1 2 -5 -16 12 24 8 -17 -5 14 -18 -0 8 7 5 9 7 6 4 7 5 3 2 -5 7 14 19 15 9 10 2 -33
-4 -10 32 7 15 -3 24 -5 14 -2 12 10 9 47 26 50 15 15 8 8 -1 -8 7 -16 28 -32 -38 13 1 14 10 2 15 8 5 8 -1 10 9 -0 1 10 13 0 12 -32 17 21 0
41 -1 23 2 1 3 13 20 13 18 0 1 29 39 16 59 8 10 12 3 12 -6 24 22 -18 -24 -48 59 49 -5 4 21 -4 -2 -4 -8 3 12 1 1 7 3 -4 18 20 14 10 5 5
15 -6 4 1 6 9 10 -14 11 10 -7 6 3 28 40 11 20 14 19 26 28 11 12 19 12 14 25 -37 44 -33 44 1 20 1 -2 2 -4 13 13 11 13 9 11 3 3 4 4 4 11
6 -5 16 8 11 10 11 10 3 15 11 18 0 77 15 17 10 12 16 14 24 26 26 26 33 11 -16 74 -15 39 81 12 32 49 13 19 14 13 13 7 8 5 8 6 7 7 14 14 5
29 -3 22 6 8 8 21 15 -14 20 20 25 -5 52 5 17 8 0 8 10 8 7 7 4 17 26 20 6 -18 18 21 18 24 10 7 4 5 4 2 4 9 8 9 2 2 4 6 -3 -0
18 9 13 10 8 10 3 -25 16 24 29 12 12 3 4 19 12 14 10 7 7 6 7 7 5 7 10 8 7 7 4 4 4 3 4 5 6 7 10 11 6 5 0 1 2 7 11 14 10
12 18 15 12 15 12 7 -5 22 10 25 20 37 -13 65 7 1 6 10 -3 6 9 11 7 5 5 2 8 10 9 6 6 8 7 5 5 6 9 7 4 8 6 4 7 10 12 12 13 10
8 6 35 23 4 19 26 -7 11 9 6 12 27 27 -12 6 22 -12 -13 4 9 6 8 6 3 1 2 11 14 12 12 10 10 9 12 9 8 8 7 11 7 6 9 10 8 7 5 6 6
Height
3112 3115 3119 3122 3129 3113 3102 3106 3116 3122 3127 3129 3134 3134 3138 3143 3145 3149 3148 3150 3153 3154 3157 3159 3162 3164 3166 3168 3170 3172 3174 3176 3178 3179 3181 3184 3187 3189 3191 3192 3193 3193 3195 3195 3196 3197 3197 3198 3198
3106 3109 3113 3113 3110 3097 3093 3103 3110 3120 3126 3128 3132 3133 3134 3137 3140 3142 3146 3147 3151 3152 3154 3158 3161 3163 3165 3167 3169 3171 3174 3176 3178 3179 3181 3185 3187 3190 3191 3192 3193 3194 3195 3196 3197 3198 3199 3199 3200
3100 3103 3107 3102 3093 3081 3093 3100 3112 3120 3124 3126 3129 3130 3130 3132 3136 3138 3143 3145 3149 3150 3153 3156 3160 3162 3164 3166 3169 3171 3173 3175 3177 3179 3182 3184 3187 3190 3191 3192 3193 3195 3196 3197 3198 3199 3200 3201 3202
3093 3096 3097 3087 3077 3085 3092 3099 3111 3116 3120 3123 3125 3125 3126 3127 3134 3137 3139 3142 3145 3148 3152 3155 3158 3161 3163 3165 3168 3170 3173 3175 3177 3179 3182 3184 3187 3189 3191 3192 3194 3195 3197 3198 3199 3200 3201 3202 3203
3087 3087 3085 3075 3073 3083 3088 3095 3104 3106 3112 3118 3121 3120 3121 3126 3130 3133 3135 3138 3142 3146 3149 3153 3156 3159 3161 3164 3166 3169 3172 3174 3176 3179 3182 3184 3186 3189 3191 3193 3195 3196 3197 3199 3199 3201 3202 3203 3204
3080 3080 3074 3069 3071 3079 3082 3091 3094 3098 3104 3111 3115 3117 3120 3122 3120 3129 3132 3135 3139 3143 3146 3150 3153 3156 3159 3163 3165 3167 3170 3173 3176 3178 3181 3184 3186 3189 3191 3193 3195 3197 3198 3199 3201 3202 3203 3204 3205
3072 3071 3066 3067 3069 3072 3076 3087 3087 3091 3096 3101 3109 3110 3114 3118 3120 3127 3128 3131 3135 3139 3143 3146 3150 3153 3157 3161 3164 3166 3169 3172 3175 3178 3181 3184 3187 3189 3191 3193 3195 3197 3199 3201 3202 3204 3204 3205 3206
3066 3065 3064 3064 3066 3062 3072 3077 3082 3085 3090 3098 3101 3102 3108 3112 3117 3124 3124 3125 3130 3135 3139 3143 3146 3150 3154 3158 3162 3165 3168 3171 3174 3177 3180 3184 3187 3190 3192 3194 3196 3199 3201 3203 3204 3205 3206 3207 3207
3060 3060 3056 3058 3060 3059 3068 3070 3072 3079 3081 3085 3090 3097 3106 3109 3113 3117 3115 3119 3124 3129 3134 3139 3144 3148 3151 3155 3159 3163 3166 3170 3173 3176 3180 3183 3187 3189 3192 3195 3197 3199 3202 3204 3205 3206 3207 3208 3208
3055 3052 3049 3052 3055 3056 3059 3064 3065 3068 3072 3078 3085 3091 3099 3103 3106 3108 3108 3103 3118 3124 3129 3136 3141 3145 3148 3152 3156 3160 3164 3168 3172 3176 3179 3183 3186 3189 3192 3195 3197 3200 3202 3204 3206 3207 3208 3208 3209
3048 3042 3045 3046 3050 3053 3054 3057 3059 3059 3062 3071 3079 3080 3089 3098 3099 3102 3102 3089 3112 3121 3126 3132 3138 3143 3147 3150 3153 3157 3162 3166 3171 3175 3178 3182 3185 3189 3192 3195 3198 3200 3203 3205 3207 3208 3209 3209 3210
3041 3039 3040 3040 3044 3045 3047 3051 3053 3054 3057 3069 3072 3075 3081 3090 3091 3095 3100 3098 3107 3117 3122 3130 3135 3141 3145 3149 3152 3156 3160 3164 3169 3173 3177 3181 3185 3189 3192 3195 3198 3200 3202 3205 3207 3208 3209 3209 3210
3033 3034 3034 3032 3034 3037 3041 3043 3047 3047 3049 3062 3065 3068 3074 3078 3078 3077 3095 3099 3100 3117 3121 3128 3134 3139 3144 3148 3151 3154 3158 3162 3167 3172 3176 3180 3185 3189 3192 3195 3198 3200 3202 3204 3206 3207 3208 3209 3209
3027 3027 3026 3025 3026 3029 3032 3038 3040 3041 3043 3046 3052 3060 3068 3074 3071 3069 3084 3085 3087 3112 3121 3127 3133 3137 3143 3147 3149 3153 3156 3160 3165 3170 3175 3179 3184 3188 3192 3195 3198 3200 3202 3203 3205 3206 3207 3208 3208
3024 3021 3020 3018 3020 3022 3028 3030 3029 3032 3037 3040 3048 3056 3061 3067 3068 3056 3079 3089 3097 3106 3116 3122 3131 3136 3140 3145 3147 3151 3155 3158 3163 3168 3173 3178 3182 3187 3191 3195 3198 3200 3201 3203 3204 3205 3206 3206 3207
3020 3018 3014 3013 3017 3017 3022 3020 3028 3029 3030 3036 3048 3047 3054 3062 3065 3059 3076 3086 3094 3099 3111 3118 3126 3134 3136 3140 3145 3148 3153 3157 3161 3165 3170 3175 3180 3184 3188 3193 3195 3198 3200 3201 3203 3203 3204 3205 3205
3015 3012 3010 3008 3009 3013 3014 3017 3024 3026 3031 3032 3037 3040 3048 3057 3063 3065 3073 3070 3086 3098 3105 3112 3123 3128 3130 3135 3141 3147 3151 3155 3160 3164 3167 3173 3178 3183 3187 3190 3193 3195 3197 3199 3200 3201 3202 3202 3202
3011 3009 3005 3004 3007 3009 3010 3016 3020 3022 3026 3027 3034 3040 3042 3050 3060 3064 3069 3075 3082 3092 3103 3109 3122 3124 3127 3132 3138 3143 3148 3153 3157 3161 3166 3170 3175 3180 3183 3187 3190 3192 3195 3196 3198 3198 3198 3198 3199
3007 3005 3001 2999 3002 3005 3009 3015 3020 3021 3024 3027 3027 3030 3038 3044 3052 3061 3067 3072 3079 3089 3100 3108 3116 3121 3124 3130 3136 3141 3146 3150 3154 3159 3163 3167 3172 3176 3180 3184 3187 3189 3191 3192 3193 3193 3193 3193 3194
3003 3000 2996 2993 2997 3002 3007 3013 3017 3017 3018 3023 3026 3032 3036 3036 3047 3056 3065 3072 3073 3081 3096 3105 3112 3117 3118 3126 3132 3138 3145 3148 3153 3157 3160 3163 3167 3171 3176 3180 3182 3185 3187 3187 3187 3188 3188 3189 3190
2998 2996 2993 2995 2995 3000 3006 3012 3014 3015 3017 3020 3027 3032 3030 3033 3043 3053 3061 3068 3068 3076 3088 3098 3106 3112 3116 3124 3130 3134 3139 3143 3146 3151 3155 3160 3164 3169 3172 3175 3177 3179 3180 3182 3183 3183 3184 3185 3187
2996 2993 2991 2992 2992 2993 3002 3009 3012 3015 3015 3015 3023 3030 3025 3031 3041 3052 3058 3065 3070 3074 3086 3094 3101 3106 3111 3119 3124 3130 3135 3140 3145 3150 3154 3156 3159 3163 3166 3169 3171 3173 3176 3176 3177 3179 3178 3178 3180
2996 2991 2993 2992 2994 2994 2998 3003 3011 3015 3015 3023 3023 3024 3024 3026 3039 3050 3058 3063 3067 3075 3081 3077 3085 3095 3096 3108 3117 3124 3130 3135 3141 3144 3146 3149 3151 3156 3160 3164 3167 3169 3170 3169 3167 3171 3171 3173 3174
2995 2994 2996 2995 2996 3000 3004 3003 3011 3012 3019 3022 3024 3018 3016 3026 3038 3048 3056 3061 3066 3073 3079 3080 3086 3093 3101 3100 3104 3116 3120 3125 3133 3139 3142 3144 3148 3151 3155 3159 3161 3161 3164 3165 3161 3165 3167 3168 3168
2999 2999 3001 3002 3003 3004 3002 3001 3011 3011 3013 3015 3018 3011 3013 3025 3039 3046 3054 3060 3064 3074 3078 3081 3085 3089 3095 3100 3101 3109 3107 3119 3126 3133 3135 3138 3142 3143 3149 3152 3154 3156 3158 3160 3161 3161 3162 3162 3162
2998 2998 2998 3002 3003 3003 3004 3013 3017 3014 3010 3014 3015 3012 3019 3032 3038 3045 3053 3059 3065 3070 3075 3077 3081 3087 3094 3097 3101 3088 3099 3107 3119 3116 3130 3127 3135 3139 3142 3147 3149 3151 3153 3154 3155 3156 3156 3156 3156
3001 3003 3004 3002 3001 3003 3010 3017 3016 3022 3023 3021 3020 3017 3018 3027 3035 3044 3053 3060 3067 3071 3075 3079 3083 3088 3091 3095 3092 3095 3105 3109 3116 3121 3123 3128 3132 3136 3138 3141 3144 3146 3146 3146 3148 3149 3150 3150 3150
3006 3007 3007 3003 3006 3009 3017 3021 3027 3024 3018 3015 3017 3017 3016 3024 3034 3044 3052 3060 3065 3070 3073 3078 3083 3086 3091 3094 3097 3102 3107 3111 3116 3119 3122 3127 3131 3134 3135 3137 3139 3140 3141 3141 3143 3143 3144 3144 3144
3010 3009 3008 3008 3010 3012 3019 3028 3026 3022 3019 3019 3021 3024 3020 3028 3035 3045 3050 3057 3065 3069 3073 3078 3083 3087 3091 3094 3099 3102 3107 3109 3113 3116 3120 3125 3127 3128 3129 3132 3134 3135 3136 3135 3137 3137 3139 3139 3139
3012 3016 3014 3013 3017 3014 3017 3031 3030 3029 3027 3026 3029 3033 3029 3032 3038 3046 3048 3056 3063 3069 3073 3077 3081 3086 3091 3094 3096 3098 3102 3105 3109 3112 3116 3120 3122 3123 3125 3128 3128 3130 3130 3130 3131 3132 3133 3134 3133